Time,TemperatureF,DewpointF,PressureIn,WindDirection,WindDirectionDegrees,WindSpeedMPH,WindSpeedGustMPH,Humidity,HourlyPrecipIn,Conditions,Clouds,dailyrainin,SoftwareType,DateUTC
2013-08-09 00:01:00,73.0,71.6,30.00,South,188,0.0,4.0,95,0.00,,,0.11,meteohub,2013-08-09 04:01:00,
2013-08-09 00:06:00,73.0,71.6,30.00,SW,231,1.0,3.0,95,0.00,,,0.00,meteohub,2013-08-09 04:06:00,
2013-08-09 00:11:00,73.0,71.6,30.00,SW,235,1.0,2.0,95,0.00,,,0.00,meteohub,2013-08-09 04:11:00,
2013-08-09 00:16:00,73.0,71.6,30.00,South,169,0.0,3.0,95,0.00,,,0.00,meteohub,2013-08-09 04:16:00,
2013-08-09 00:21:00,73.0,71.6,30.00,WSW,246,0.0,3.0,95,0.00,,,0.00,meteohub,2013-08-09 04:21:00,
2013-08-09 00:26:00,73.0,71.6,30.00,SW,226,0.0,3.0,95,0.00,,,0.00,meteohub,2013-08-09 04:26:00,
2013-08-09 00:31:00,73.0,71.6,30.00,SSW,208,1.0,3.0,95,0.00,,,0.00,meteohub,2013-08-09 04:31:00,
2013-08-09 00:36:00,73.0,71.6,29.99,WSW,239,0.0,3.0,95,0.00,,,0.00,meteohub,2013-08-09 04:36:00,
2013-08-09 00:41:00,73.0,71.6,29.99,WSW,239,0.0,3.0,95,0.00,,,0.00,meteohub,2013-08-09 04:41:00,
2013-08-09 00:46:00,73.0,71.6,29.99,WSW,239,0.0,3.0,95,0.00,,,0.00,meteohub,2013-08-09 04:46:00,
2013-08-09 00:51:00,73.0,71.6,29.99,SW,235,0.0,0.0,95,0.00,,,0.00,meteohub,2013-08-09 04:51:00,
2013-08-09 00:56:00,73.0,71.6,29.99,SE,131,0.0,0.0,95,0.00,,,0.00,meteohub,2013-08-09 04:56:00,
2013-08-09 01:01:00,73.0,71.6,29.99,WSW,240,0.0,0.0,95,0.00,,,0.00,meteohub,2013-08-09 05:01:00,
2013-08-09 01:06:00,73.0,71.6,29.99,WSW,240,0.0,0.0,95,0.00,,,0.00,meteohub,2013-08-09 05:06:00,
2013-08-09 01:11:00,73.0,71.6,29.99,WSW,248,0.0,0.0,95,0.00,,,0.00,meteohub,2013-08-09 05:11:00,
2013-08-09 01:16:00,73.0,71.6,29.99,WSW,239,0.0,2.0,95,0.00,,,0.00,meteohub,2013-08-09 05:16:00,
2013-08-09 01:21:00,73.0,71.6,29.98,WSW,247,0.0,2.0,95,0.00,,,0.00,meteohub,2013-08-09 05:21:00,
2013-08-09 01:26:00,73.0,71.6,29.98,SW,233,0.0,2.0,95,0.00,,,0.00,meteohub,2013-08-09 05:26:00,
2013-08-09 01:31:00,73.0,71.6,29.98,SW,233,0.0,0.0,95,0.00,,,0.00,meteohub,2013-08-09 05:31:00,
2013-08-09 01:36:00,73.0,71.6,29.98,SW,233,0.0,0.0,95,0.00,,,0.00,meteohub,2013-08-09 05:36:00,
2013-08-09 01:41:00,73.0,71.6,29.98,WSW,249,0.0,0.0,95,0.00,,,0.00,meteohub,2013-08-09 05:41:00,
2013-08-09 01:46:00,73.0,71.6,29.98,WSW,249,0.0,0.0,95,0.00,,,0.00,meteohub,2013-08-09 05:46:00,
2013-08-09 01:51:00,73.0,71.6,29.98,WSW,238,0.0,3.0,95,0.00,,,0.00,meteohub,2013-08-09 05:51:00,
2013-08-09 01:56:00,73.0,71.8,29.97,West,270,0.0,3.0,96,0.00,,,0.00,meteohub,2013-08-09 05:56:00,
2013-08-09 02:01:00,73.0,71.8,29.97,WSW,249,0.0,3.0,96,0.00,,,0.00,meteohub,2013-08-09 06:01:00,
2013-08-09 02:06:00,73.0,71.8,29.97,SW,232,0.0,1.0,96,0.00,,,0.00,meteohub,2013-08-09 06:06:00,
2013-08-09 02:11:00,73.0,71.8,29.97,WSW,246,1.0,2.0,96,0.00,,,0.00,meteohub,2013-08-09 06:11:00,
2013-08-09 02:16:00,73.0,71.8,29.97,SW,232,0.0,2.0,96,0.00,,,0.00,meteohub,2013-08-09 06:16:00,
2013-08-09 02:21:00,73.0,71.8,29.97,WSW,244,0.0,2.0,96,0.00,,,0.00,meteohub,2013-08-09 06:21:00,
2013-08-09 02:26:00,73.0,71.8,29.97,West,266,0.0,2.0,96,0.00,,,0.00,meteohub,2013-08-09 06:26:00,
2013-08-09 02:31:00,73.0,71.8,29.96,West,265,0.0,2.0,96,0.00,,,0.00,meteohub,2013-08-09 06:31:00,
2013-08-09 02:36:00,73.0,71.8,29.96,ESE,108,0.0,2.0,96,0.00,,,0.00,meteohub,2013-08-09 06:36:00,
2013-08-09 02:41:00,73.0,71.8,29.96,WSW,252,0.0,2.0,96,0.00,,,0.00,meteohub,2013-08-09 06:41:00,
2013-08-09 02:46:00,73.0,71.8,29.96,WSW,249,0.0,2.0,96,0.00,,,0.00,meteohub,2013-08-09 06:46:00,
2013-08-09 02:51:00,73.0,71.8,29.96,WSW,249,0.0,1.0,96,0.00,,,0.00,meteohub,2013-08-09 06:51:00,
2013-08-09 02:56:00,73.0,71.8,29.96,WSW,249,0.0,0.0,96,0.00,,,0.00,meteohub,2013-08-09 06:56:00,
2013-08-09 03:01:00,73.0,71.8,29.96,WSW,238,0.0,0.0,96,0.00,,,0.00,meteohub,2013-08-09 07:01:00,
2013-08-09 03:06:00,73.0,71.8,29.96,SW,235,0.0,0.0,96,0.00,,,0.00,meteohub,2013-08-09 07:06:00,
2013-08-09 03:11:00,73.0,71.8,29.95,WSW,238,0.0,0.0,96,0.00,,,0.00,meteohub,2013-08-09 07:11:00,
2013-08-09 03:16:00,73.0,71.8,29.96,WSW,252,0.0,0.0,96,0.00,,,0.00,meteohub,2013-08-09 07:16:00,
2013-08-09 03:21:00,73.2,72.3,29.95,SW,219,1.0,0.0,97,0.00,,,0.00,meteohub,2013-08-09 07:21:00,
2013-08-09 03:26:00,73.2,72.3,29.95,West,260,0.0,2.0,97,0.00,,,0.00,meteohub,2013-08-09 07:26:00,
2013-08-09 03:31:00,73.2,72.3,29.95,WSW,252,0.0,2.0,97,0.00,,,0.00,meteohub,2013-08-09 07:31:00,
2013-08-09 03:37:00,73.2,72.3,29.95,WSW,256,2.0,3.0,97,0.00,,,0.00,meteohub,2013-08-09 07:37:00,
2013-08-09 03:42:00,73.2,72.3,29.95,WSW,255,1.0,3.0,97,0.00,,,0.00,meteohub,2013-08-09 07:42:00,
2013-08-09 03:47:00,73.2,72.3,29.95,SW,222,3.0,3.0,97,0.00,,,0.00,meteohub,2013-08-09 07:47:00,
2013-08-09 03:52:00,73.2,72.3,29.94,South,187,0.0,4.0,97,0.00,,,0.00,meteohub,2013-08-09 07:52:00,
2013-08-09 03:57:00,73.2,72.3,29.94,SW,229,0.0,4.0,97,0.00,,,0.00,meteohub,2013-08-09 07:57:00,
2013-08-09 04:02:00,73.2,72.3,29.94,SW,235,0.0,4.0,97,0.00,,,0.00,meteohub,2013-08-09 08:02:00,
2013-08-09 04:07:00,73.2,72.3,29.94,WSW,241,0.0,3.0,97,0.00,,,0.00,meteohub,2013-08-09 08:07:00,
2013-08-09 04:12:00,73.2,72.3,29.94,SW,225,2.0,4.0,97,0.00,,,0.00,meteohub,2013-08-09 08:12:00,
2013-08-09 04:17:00,73.4,72.5,29.94,SW,231,0.0,4.0,97,0.00,,,0.00,meteohub,2013-08-09 08:17:00,
2013-08-09 04:22:00,73.4,72.5,29.95,WSW,239,1.0,8.0,97,0.00,,,0.00,meteohub,2013-08-09 08:22:00,
2013-08-09 04:27:00,73.6,72.7,29.94,SW,224,0.0,8.0,97,0.00,,,0.00,meteohub,2013-08-09 08:27:00,
2013-08-09 04:32:00,73.6,72.7,29.94,SW,225,0.0,4.0,97,0.00,,,0.00,meteohub,2013-08-09 08:32:00,
2013-08-09 04:37:00,73.6,72.7,29.94,SW,233,0.0,7.0,97,0.00,,,0.00,meteohub,2013-08-09 08:37:00,
2013-08-09 04:42:00,73.6,72.7,29.94,SW,229,0.0,7.0,97,0.00,,,0.00,meteohub,2013-08-09 08:42:00,
2013-08-09 04:47:00,73.6,72.7,29.94,SW,229,0.0,4.0,97,0.00,,,0.00,meteohub,2013-08-09 08:47:00,
2013-08-09 04:52:00,73.6,72.7,29.94,WSW,249,0.0,4.0,97,0.00,,,0.00,meteohub,2013-08-09 08:52:00,
2013-08-09 04:57:00,73.6,72.7,29.94,WSW,250,0.0,3.0,97,0.00,,,0.00,meteohub,2013-08-09 08:57:00,
2013-08-09 05:02:00,73.6,72.7,29.94,WSW,238,0.0,3.0,97,0.00,,,0.00,meteohub,2013-08-09 09:02:00,
2013-08-09 05:07:00,73.6,72.7,29.94,WSW,257,0.0,7.0,97,0.00,,,0.00,meteohub,2013-08-09 09:07:00,
2013-08-09 05:12:00,73.6,72.7,29.94,WSW,245,0.0,7.0,97,0.00,,,0.00,meteohub,2013-08-09 09:12:00,
2013-08-09 05:17:00,73.6,72.7,29.93,WSW,248,0.0,7.0,97,0.00,,,0.00,meteohub,2013-08-09 09:17:00,
2013-08-09 05:22:00,73.6,72.7,29.93,West,259,2.0,5.0,97,0.00,,,0.00,meteohub,2013-08-09 09:22:00,
2013-08-09 05:27:00,73.6,72.7,29.93,SW,236,0.0,3.0,97,0.00,,,0.00,meteohub,2013-08-09 09:27:00,
2013-08-09 05:32:00,73.6,72.7,29.93,SW,229,0.0,3.0,97,0.00,,,0.00,meteohub,2013-08-09 09:32:00,
2013-08-09 05:37:00,73.6,73.0,29.93,WSW,245,0.0,3.0,98,0.00,,,0.00,meteohub,2013-08-09 09:37:00,
2013-08-09 05:42:00,73.6,73.0,29.93,WSW,255,0.0,5.0,98,0.00,,,0.00,meteohub,2013-08-09 09:42:00,
2013-08-09 05:47:00,73.6,73.0,29.93,ENE,60,0.0,5.0,98,0.00,,,0.00,meteohub,2013-08-09 09:47:00,
2013-08-09 05:52:00,73.6,73.0,29.93,WSW,255,4.0,5.0,98,0.00,,,0.00,meteohub,2013-08-09 09:52:00,
2013-08-09 05:57:00,73.6,73.0,29.93,South,187,0.0,5.0,98,0.00,,,0.00,meteohub,2013-08-09 09:57:00,
2013-08-09 06:02:00,73.6,73.0,29.93,WSW,247,2.0,5.0,98,0.00,,,0.00,meteohub,2013-08-09 10:02:00,
2013-08-09 06:07:00,73.6,73.0,29.93,WSW,241,0.0,5.0,98,0.00,,,0.00,meteohub,2013-08-09 10:07:00,
2013-08-09 06:12:00,73.6,73.0,29.93,SW,222,0.0,4.0,98,0.00,,,0.00,meteohub,2013-08-09 10:12:00,
2013-08-09 06:17:00,73.6,73.0,29.93,WSW,239,0.0,4.0,98,0.00,,,0.00,meteohub,2013-08-09 10:17:00,
2013-08-09 06:22:00,73.8,73.2,29.92,WSW,249,0.0,4.0,98,0.00,,,0.00,meteohub,2013-08-09 10:22:00,
2013-08-09 06:27:00,73.8,73.2,29.92,South,187,0.0,7.0,98,0.00,,,0.00,meteohub,2013-08-09 10:27:00,
2013-08-09 06:32:00,73.8,73.2,29.92,West,264,0.0,7.0,98,0.00,,,0.00,meteohub,2013-08-09 10:32:00,
2013-08-09 06:37:00,73.8,73.2,29.92,WSW,239,0.0,7.0,98,0.00,,,0.00,meteohub,2013-08-09 10:37:00,
2013-08-09 06:42:00,73.8,73.2,29.92,WSW,257,1.0,6.0,98,0.00,,,0.00,meteohub,2013-08-09 10:42:00,
2013-08-09 06:47:00,73.8,73.2,29.92,WSW,248,2.0,7.0,98,0.01,,,0.01,meteohub,2013-08-09 10:47:00,
2013-08-09 06:52:00,73.8,73.2,29.92,SW,226,0.0,8.0,98,0.01,,,0.01,meteohub,2013-08-09 10:52:00,
2013-08-09 06:57:00,73.8,73.2,29.92,West,266,0.0,8.0,98,0.01,,,0.01,meteohub,2013-08-09 10:57:00,
2013-08-09 07:02:00,73.8,73.2,29.91,WSW,239,0.0,8.0,98,0.01,,,0.01,meteohub,2013-08-09 11:02:00,
2013-08-09 07:07:00,73.8,73.2,29.91,SSE,162,0.0,7.0,98,0.01,,,0.01,meteohub,2013-08-09 11:07:00,
2013-08-09 07:12:00,73.8,73.2,29.91,SW,229,0.0,3.0,98,0.02,,,0.02,meteohub,2013-08-09 11:12:00,
2013-08-09 07:17:00,73.8,73.2,29.91,West,266,1.0,3.0,98,0.03,,,0.03,meteohub,2013-08-09 11:17:00,
2013-08-09 07:22:00,73.8,73.2,29.91,SW,231,0.0,3.0,98,0.04,,,0.04,meteohub,2013-08-09 11:22:00,
2013-08-09 07:27:00,73.8,73.2,29.91,WSW,246,2.0,3.0,98,0.05,,,0.05,meteohub,2013-08-09 11:27:00,
2013-08-09 07:32:00,73.8,73.2,29.91,WSW,239,0.0,6.0,98,0.06,,,0.06,meteohub,2013-08-09 11:32:00,
2013-08-09 07:37:00,73.8,73.2,29.91,WSW,239,0.0,6.0,98,0.07,,,0.07,meteohub,2013-08-09 11:37:00,
2013-08-09 07:42:00,73.8,73.2,29.90,WSW,252,1.0,6.0,98,0.07,,,0.08,meteohub,2013-08-09 11:42:00,
2013-08-09 07:47:00,73.8,73.2,29.90,SW,218,0.0,4.0,98,0.07,,,0.08,meteohub,2013-08-09 11:47:00,
2013-08-09 07:52:00,73.8,73.2,29.90,WSW,249,0.0,8.0,98,0.07,,,0.08,meteohub,2013-08-09 11:52:00,
2013-08-09 07:57:00,73.8,73.2,29.90,West,270,0.0,8.0,98,0.07,,,0.08,meteohub,2013-08-09 11:57:00,
2013-08-09 08:02:00,73.9,73.4,29.90,WSW,245,0.0,3.0,98,0.07,,,0.08,meteohub,2013-08-09 12:02:00,
2013-08-09 08:07:00,73.9,73.4,29.90,WSW,241,0.0,4.0,98,0.07,,,0.09,meteohub,2013-08-09 12:07:00,
2013-08-09 08:12:00,73.9,73.4,29.90,WSW,238,0.0,4.0,98,0.07,,,0.09,meteohub,2013-08-09 12:12:00,
2013-08-09 08:17:00,73.9,73.4,29.90,WSW,237,0.0,6.0,98,0.06,,,0.09,meteohub,2013-08-09 12:17:00,
2013-08-09 08:22:00,73.9,73.4,29.89,SW,223,1.0,6.0,98,0.05,,,0.09,meteohub,2013-08-09 12:22:00,
2013-08-09 08:27:00,73.9,73.4,29.89,WSW,253,1.0,6.0,98,0.04,,,0.09,meteohub,2013-08-09 12:27:00,
2013-08-09 08:32:00,73.9,73.4,29.89,WSW,249,0.0,4.0,98,0.03,,,0.09,meteohub,2013-08-09 12:32:00,
2013-08-09 08:37:00,74.1,73.6,29.89,SW,229,1.0,5.0,98,0.02,,,0.09,meteohub,2013-08-09 12:37:00,
2013-08-09 08:42:00,74.1,73.6,29.88,WSW,239,1.0,7.0,98,0.01,,,0.09,meteohub,2013-08-09 12:42:00,
2013-08-09 08:47:00,74.1,73.6,29.88,WSW,241,0.0,7.0,98,0.01,,,0.09,meteohub,2013-08-09 12:47:00,
2013-08-09 08:52:00,74.1,73.6,29.88,SW,232,5.0,7.0,98,0.01,,,0.09,meteohub,2013-08-09 12:52:00,
2013-08-09 08:57:00,74.1,73.6,29.88,WSW,237,0.0,7.0,98,0.01,,,0.09,meteohub,2013-08-09 12:57:00,
2013-08-09 09:02:00,74.1,73.6,29.87,WSW,239,2.0,7.0,98,0.01,,,0.09,meteohub,2013-08-09 13:02:00,
2013-08-09 09:07:00,74.1,73.6,29.87,West,270,1.0,7.0,98,0.00,,,0.09,meteohub,2013-08-09 13:07:00,
2013-08-09 09:12:00,74.1,73.6,29.87,WSW,253,0.0,3.0,98,0.00,,,0.09,meteohub,2013-08-09 13:12:00,
2013-08-09 09:17:00,74.1,73.6,29.87,WSW,255,0.0,3.0,98,0.00,,,0.09,meteohub,2013-08-09 13:17:00,
2013-08-09 09:22:00,74.1,73.6,29.87,WSW,247,2.0,4.0,98,0.00,,,0.09,meteohub,2013-08-09 13:22:00,
2013-08-09 09:27:00,74.1,73.6,29.87,WSW,245,1.0,4.0,98,0.00,,,0.09,meteohub,2013-08-09 13:27:00,
2013-08-09 09:32:00,74.1,73.6,29.86,SW,235,2.0,3.0,98,0.00,,,0.09,meteohub,2013-08-09 13:32:00,
2013-08-09 09:37:00,74.3,73.8,29.86,SW,235,1.0,3.0,98,0.00,,,0.09,meteohub,2013-08-09 13:37:00,
2013-08-09 09:42:00,74.5,73.9,29.86,WSW,256,0.0,6.0,98,0.00,,,0.09,meteohub,2013-08-09 13:42:00,
2013-08-09 09:47:00,74.5,73.9,29.86,WSW,257,0.0,6.0,98,0.00,,,0.09,meteohub,2013-08-09 13:47:00,
2013-08-09 09:52:00,74.5,73.9,29.86,WSW,252,0.0,4.0,98,0.00,,,0.09,meteohub,2013-08-09 13:52:00,
2013-08-09 09:57:00,74.5,73.9,29.86,SW,236,4.0,4.0,98,0.00,,,0.09,meteohub,2013-08-09 13:57:00,
2013-08-09 10:02:00,74.7,74.1,29.85,SW,233,4.0,7.0,98,0.00,,,0.09,meteohub,2013-08-09 14:02:00,
2013-08-09 10:07:00,74.7,74.1,29.85,WSW,252,1.0,7.0,98,0.00,,,0.09,meteohub,2013-08-09 14:07:00,
2013-08-09 10:12:00,74.7,74.1,29.86,SW,229,0.0,7.0,98,0.00,,,0.09,meteohub,2013-08-09 14:12:00,
2013-08-09 10:17:00,74.7,74.1,29.85,SSW,197,2.0,9.0,98,0.00,,,0.09,meteohub,2013-08-09 14:17:00,
2013-08-09 10:22:00,74.7,74.1,29.85,SW,219,0.0,9.0,98,0.00,,,0.09,meteohub,2013-08-09 14:22:00,
2013-08-09 10:27:00,74.7,74.1,29.85,WSW,245,0.0,8.0,98,0.00,,,0.09,meteohub,2013-08-09 14:27:00,
2013-08-09 10:32:00,74.8,74.3,29.84,WSW,242,2.0,8.0,98,0.00,,,0.09,meteohub,2013-08-09 14:32:00,
2013-08-09 10:37:00,74.8,74.3,29.85,SSW,194,1.0,8.0,98,0.00,,,0.09,meteohub,2013-08-09 14:37:00,
2013-08-09 10:42:00,75.0,74.5,29.85,South,180,2.0,6.0,98,0.00,,,0.09,meteohub,2013-08-09 14:42:00,
2013-08-09 10:47:00,75.0,74.5,29.85,WSW,242,2.0,11.0,98,0.00,,,0.09,meteohub,2013-08-09 14:47:00,
2013-08-09 10:52:00,75.0,74.5,29.85,WSW,238,2.0,11.0,98,0.00,,,0.09,meteohub,2013-08-09 14:52:00,
2013-08-09 10:57:00,75.0,74.5,29.85,SW,232,7.0,11.0,98,0.00,,,0.09,meteohub,2013-08-09 14:57:00,
2013-08-09 11:02:00,75.0,74.5,29.85,WNW,285,3.0,8.0,98,0.00,,,0.09,meteohub,2013-08-09 15:02:00,
2013-08-09 11:07:00,75.0,74.5,29.84,WSW,238,2.0,8.0,98,0.00,,,0.09,meteohub,2013-08-09 15:07:00,
2013-08-09 11:12:00,75.0,74.5,29.84,SW,229,0.0,8.0,98,0.03,,,0.12,meteohub,2013-08-09 15:12:00,
2013-08-09 11:17:00,75.0,74.5,29.83,SSW,198,0.0,8.0,98,0.03,,,0.12,meteohub,2013-08-09 15:17:00,
2013-08-09 11:22:00,75.0,74.5,29.83,WSW,240,1.0,6.0,98,0.03,,,0.12,meteohub,2013-08-09 15:22:00,
2013-08-09 11:27:00,75.0,74.5,29.83,WSW,239,1.0,6.0,98,0.03,,,0.12,meteohub,2013-08-09 15:27:00,
2013-08-09 11:32:00,75.0,74.5,29.83,WSW,242,2.0,6.0,98,0.03,,,0.12,meteohub,2013-08-09 15:32:00,
2013-08-09 11:37:00,75.2,74.7,29.83,West,263,0.0,6.0,98,0.03,,,0.12,meteohub,2013-08-09 15:37:00,
2013-08-09 11:42:00,75.4,74.8,29.83,SW,233,0.0,7.0,98,0.03,,,0.12,meteohub,2013-08-09 15:42:00,
2013-08-09 11:47:00,75.4,74.8,29.83,WSW,245,3.0,7.0,98,0.03,,,0.12,meteohub,2013-08-09 15:47:00,
2013-08-09 11:52:00,75.6,75.0,29.83,SW,226,2.0,7.0,98,0.04,,,0.13,meteohub,2013-08-09 15:52:00,
2013-08-09 11:57:00,75.6,75.0,29.83,WSW,246,0.0,6.0,98,0.04,,,0.13,meteohub,2013-08-09 15:57:00,
2013-08-09 12:02:00,75.6,75.0,29.82,WSW,246,3.0,6.0,98,0.04,,,0.13,meteohub,2013-08-09 16:02:00,
2013-08-09 12:07:00,75.7,75.2,29.81,West,260,2.0,5.0,98,0.04,,,0.13,meteohub,2013-08-09 16:07:00,
2013-08-09 12:12:00,75.9,75.4,29.81,WSW,256,1.0,6.0,98,0.01,,,0.13,meteohub,2013-08-09 16:12:00,
2013-08-09 12:17:00,76.3,75.7,29.81,SW,232,0.0,11.0,98,0.01,,,0.13,meteohub,2013-08-09 16:17:00,
2013-08-09 12:22:00,76.6,76.1,29.81,SW,229,2.0,11.0,98,0.01,,,0.13,meteohub,2013-08-09 16:22:00,
2013-08-09 12:27:00,77.2,76.3,29.81,West,273,1.0,11.0,97,0.01,,,0.13,meteohub,2013-08-09 16:27:00,
2013-08-09 12:32:00,77.4,76.5,29.81,SSW,201,0.0,9.0,97,0.01,,,0.13,meteohub,2013-08-09 16:32:00,
2013-08-09 12:37:00,77.5,76.3,29.81,WSW,245,3.0,9.0,96,0.01,,,0.13,meteohub,2013-08-09 16:37:00,
2013-08-09 12:42:00,78.4,77.2,29.80,SSW,194,0.0,6.0,96,0.01,,,0.13,meteohub,2013-08-09 16:42:00,
2013-08-09 12:47:00,78.6,76.8,29.80,WSW,239,2.0,6.0,94,0.00,,,0.13,meteohub,2013-08-09 16:47:00,
2013-08-09 12:52:00,78.6,76.5,29.80,ENE,70,3.0,8.0,93,0.00,,,0.13,meteohub,2013-08-09 16:52:00,
2013-08-09 12:57:00,79.2,76.6,29.80,WSW,252,5.0,8.0,92,0.00,,,0.13,meteohub,2013-08-09 16:57:00,
2013-08-09 13:02:00,79.5,76.6,29.80,SW,231,1.0,8.0,91,0.00,,,0.13,meteohub,2013-08-09 17:02:00,
2013-08-09 13:07:00,79.9,76.6,29.79,SW,229,2.0,7.0,90,0.00,,,0.13,meteohub,2013-08-09 17:07:00,
2013-08-09 13:12:00,80.1,76.5,29.79,SSE,165,1.0,7.0,89,0.00,,,0.13,meteohub,2013-08-09 17:12:00,
2013-08-09 13:17:00,80.1,76.5,29.79,WSW,242,4.0,8.0,89,0.00,,,0.13,meteohub,2013-08-09 17:17:00,
2013-08-09 13:22:00,80.1,76.5,29.79,WSW,249,1.0,10.0,89,0.00,,,0.13,meteohub,2013-08-09 17:22:00,
2013-08-09 13:27:00,79.9,76.3,29.79,WSW,255,2.0,10.0,89,0.00,,,0.13,meteohub,2013-08-09 17:27:00,
2013-08-09 13:32:00,79.9,76.6,29.79,SW,231,0.0,7.0,90,0.00,,,0.13,meteohub,2013-08-09 17:32:00,
2013-08-09 13:37:00,79.9,76.3,29.78,WSW,237,1.0,6.0,89,0.00,,,0.13,meteohub,2013-08-09 17:37:00,
2013-08-09 13:42:00,80.1,76.5,29.79,SW,235,1.0,6.0,89,0.00,,,0.13,meteohub,2013-08-09 17:42:00,
2013-08-09 13:47:00,80.1,76.5,29.79,WSW,250,2.0,6.0,89,0.00,,,0.13,meteohub,2013-08-09 17:47:00,
2013-08-09 13:52:00,80.2,77.0,29.79,WSW,248,0.0,6.0,90,0.00,,,0.13,meteohub,2013-08-09 17:52:00,
2013-08-09 13:57:00,80.1,76.5,29.79,WSW,248,0.0,4.0,89,0.00,,,0.13,meteohub,2013-08-09 17:57:00,
2013-08-09 14:02:00,80.1,76.8,29.78,WSW,247,0.0,4.0,90,0.00,,,0.13,meteohub,2013-08-09 18:02:00,
2013-08-09 14:07:00,80.1,76.8,29.78,WSW,248,1.0,1.0,90,0.00,,,0.13,meteohub,2013-08-09 18:07:00,
2013-08-09 14:12:00,80.2,76.6,29.78,WSW,243,1.0,1.0,89,0.00,,,0.13,meteohub,2013-08-09 18:12:00,
2013-08-09 14:17:00,80.6,76.6,29.78,SW,231,0.0,2.0,88,0.00,,,0.13,meteohub,2013-08-09 18:17:00,
2013-08-09 14:22:00,81.1,76.5,29.78,SSE,160,0.0,2.0,86,0.00,,,0.13,meteohub,2013-08-09 18:22:00,
2013-08-09 14:27:00,81.9,76.5,29.78,WSW,253,0.0,7.0,84,0.00,,,0.13,meteohub,2013-08-09 18:27:00,
2013-08-09 14:32:00,82.6,77.5,29.78,WSW,253,0.0,7.0,85,0.00,,,0.13,meteohub,2013-08-09 18:32:00,
2013-08-09 14:37:00,82.8,77.4,29.78,SW,225,1.0,7.0,84,0.00,,,0.13,meteohub,2013-08-09 18:37:00,
2013-08-09 14:42:00,82.9,77.5,29.78,WSW,250,0.0,4.0,84,0.00,,,0.13,meteohub,2013-08-09 18:42:00,
2013-08-09 14:47:00,83.1,77.7,29.78,West,270,0.0,4.0,84,0.00,,,0.13,meteohub,2013-08-09 18:47:00,
2013-08-09 14:52:00,83.7,77.9,29.78,SSW,212,1.0,4.0,83,0.00,,,0.13,meteohub,2013-08-09 18:52:00,
2013-08-09 14:57:00,84.4,77.5,29.78,NNE,18,0.0,5.0,80,0.00,,,0.13,meteohub,2013-08-09 18:57:00,
2013-08-09 15:02:00,84.9,78.4,29.78,West,264,0.0,5.0,81,0.00,,,0.13,meteohub,2013-08-09 19:02:00,
2013-08-09 15:07:00,85.3,77.7,29.78,West,274,1.0,2.0,78,0.00,,,0.13,meteohub,2013-08-09 19:07:00,
2013-08-09 15:12:00,85.1,76.6,29.78,WSW,255,0.0,2.0,76,0.00,,,0.13,meteohub,2013-08-09 19:12:00,
2013-08-09 15:17:00,84.7,76.3,29.78,West,260,0.0,3.0,76,0.00,,,0.13,meteohub,2013-08-09 19:17:00,
2013-08-09 15:22:00,84.6,76.5,29.78,WSW,256,0.0,3.0,77,0.00,,,0.13,meteohub,2013-08-09 19:22:00,
2013-08-09 15:27:00,84.7,76.6,29.78,WSW,242,0.0,3.0,77,0.00,,,0.13,meteohub,2013-08-09 19:27:00,
2013-08-09 15:32:00,84.7,77.5,29.78,SSW,201,0.0,3.0,79,0.00,,,0.13,meteohub,2013-08-09 19:32:00,
2013-08-09 15:37:00,84.9,77.4,29.78,SW,229,0.0,2.0,78,0.00,,,0.13,meteohub,2013-08-09 19:37:00,
2013-08-09 15:42:00,85.5,77.4,29.78,WSW,245,1.0,0.0,77,0.00,,,0.13,meteohub,2013-08-09 19:42:00,
2013-08-09 15:47:00,85.6,76.5,29.78,West,266,0.0,3.0,74,0.00,,,0.13,meteohub,2013-08-09 19:47:00,
2013-08-09 15:52:00,85.3,76.1,29.77,WSW,256,0.0,3.0,74,0.00,,,0.13,meteohub,2013-08-09 19:52:00,
2013-08-09 15:57:00,84.9,76.5,29.77,SW,229,0.0,3.0,76,0.00,,,0.13,meteohub,2013-08-09 19:57:00,
2013-08-09 16:02:00,84.6,77.0,29.77,WSW,240,0.0,2.0,78,0.00,,,0.13,meteohub,2013-08-09 20:02:00,
2013-08-09 16:07:00,84.4,76.8,29.77,SW,233,5.0,5.0,78,0.00,,,0.13,meteohub,2013-08-09 20:07:00,
2013-08-09 16:12:00,84.7,77.2,29.77,West,260,0.0,5.0,78,0.00,,,0.13,meteohub,2013-08-09 20:12:00,
2013-08-09 16:17:00,84.6,76.1,29.77,South,183,1.0,5.0,76,0.00,,,0.13,meteohub,2013-08-09 20:17:00,
2013-08-09 16:22:00,84.6,76.1,29.77,WSW,243,0.0,8.0,76,0.00,,,0.13,meteohub,2013-08-09 20:22:00,
2013-08-09 16:27:00,84.4,76.5,29.77,West,262,0.0,8.0,77,0.00,,,0.13,meteohub,2013-08-09 20:27:00,
2013-08-09 16:32:00,84.4,75.9,29.78,WSW,253,1.0,8.0,76,0.00,,,0.13,meteohub,2013-08-09 20:32:00,
2013-08-09 16:37:00,84.4,76.5,29.78,SW,226,1.0,6.0,77,0.00,,,0.13,meteohub,2013-08-09 20:37:00,
2013-08-09 16:42:00,84.0,76.1,29.77,SW,233,0.0,6.0,77,0.00,,,0.13,meteohub,2013-08-09 20:42:00,
2013-08-09 16:47:00,83.8,76.3,29.77,SW,231,0.0,3.0,78,0.00,,,0.13,meteohub,2013-08-09 20:47:00,
2013-08-09 16:52:00,83.8,75.9,29.77,SW,229,0.0,1.0,77,0.00,,,0.13,meteohub,2013-08-09 20:52:00,
2013-08-09 16:57:00,83.8,76.3,29.77,SSW,205,0.0,2.0,78,0.00,,,0.13,meteohub,2013-08-09 20:57:00,
2013-08-09 17:02:00,83.7,75.2,29.77,WSW,250,0.0,2.0,76,0.00,,,0.13,meteohub,2013-08-09 21:02:00,
2013-08-09 17:07:00,83.7,75.7,29.77,WSW,245,1.0,2.0,77,0.00,,,0.13,meteohub,2013-08-09 21:07:00,
2013-08-09 17:12:00,83.5,75.6,29.77,WSW,253,0.0,2.0,77,0.00,,,0.13,meteohub,2013-08-09 21:12:00,
2013-08-09 17:17:00,83.1,75.6,29.77,WSW,253,0.0,2.0,78,0.00,,,0.13,meteohub,2013-08-09 21:17:00,
2013-08-09 17:22:00,82.9,75.7,29.78,WSW,242,0.0,2.0,79,0.00,,,0.13,meteohub,2013-08-09 21:22:00,
2013-08-09 17:27:00,82.6,76.1,29.78,WSW,242,0.0,2.0,81,0.00,,,0.13,meteohub,2013-08-09 21:27:00,
2013-08-09 17:32:00,82.2,76.5,29.78,WSW,242,0.0,2.0,83,0.00,,,0.13,meteohub,2013-08-09 21:32:00,
2013-08-09 17:37:00,81.7,76.6,29.78,WSW,243,0.0,2.0,85,0.01,,,0.14,meteohub,2013-08-09 21:37:00,
2013-08-09 17:42:00,81.0,76.6,29.78,WSW,243,0.0,0.0,87,0.03,,,0.16,meteohub,2013-08-09 21:42:00,
2013-08-09 17:47:00,80.2,76.3,29.79,WSW,244,0.0,0.0,88,0.04,,,0.17,meteohub,2013-08-09 21:47:00,
2013-08-09 17:52:00,79.3,76.1,29.80,WSW,252,0.0,1.0,90,0.09,,,0.22,meteohub,2013-08-09 21:52:00,
2013-08-09 17:57:00,78.4,75.9,29.79,ENE,71,0.0,2.0,92,0.24,,,0.37,meteohub,2013-08-09 21:57:00,
2013-08-09 18:02:00,77.7,75.2,29.79,ENE,71,0.0,2.0,92,0.40,,,0.53,meteohub,2013-08-09 22:02:00,
2013-08-09 18:07:00,77.2,75.0,29.79,WNW,283,0.0,1.0,93,0.40,,,0.53,meteohub,2013-08-09 22:07:00,
2013-08-09 18:12:00,76.8,75.0,29.79,WNW,283,0.0,1.0,94,0.41,,,0.54,meteohub,2013-08-09 22:12:00,
2013-08-09 18:17:00,76.5,74.8,29.79,WNW,283,0.0,0.0,95,0.41,,,0.54,meteohub,2013-08-09 22:17:00,
2013-08-09 18:22:00,76.5,74.8,29.79,WNW,283,0.0,0.0,95,0.41,,,0.54,meteohub,2013-08-09 22:22:00,
2013-08-09 18:27:00,76.5,75.2,29.79,WNW,283,0.0,0.0,96,0.41,,,0.54,meteohub,2013-08-09 22:27:00,
2013-08-09 18:32:00,76.5,75.2,29.79,WNW,283,0.0,0.0,96,0.41,,,0.54,meteohub,2013-08-09 22:32:00,
2013-08-09 18:37:00,76.5,75.6,29.80,WNW,283,0.0,0.0,97,0.39,,,0.54,meteohub,2013-08-09 22:37:00,
2013-08-09 18:42:00,76.6,75.7,29.79,WNW,283,0.0,0.0,97,0.38,,,0.54,meteohub,2013-08-09 22:42:00,
2013-08-09 18:47:00,76.6,75.7,29.80,WSW,246,0.0,2.0,97,0.37,,,0.54,meteohub,2013-08-09 22:47:00,
2013-08-09 18:52:00,76.6,75.7,29.80,WSW,247,0.0,2.0,97,0.27,,,0.54,meteohub,2013-08-09 22:52:00,
2013-08-09 18:57:00,76.5,75.6,29.80,WSW,246,0.0,2.0,97,0.04,,,0.54,meteohub,2013-08-09 22:57:00,
2013-08-09 19:02:00,76.3,75.4,29.80,WSW,245,0.0,0.0,97,0.01,,,0.54,meteohub,2013-08-09 23:02:00,
2013-08-09 19:07:00,76.3,75.4,29.80,WSW,245,0.0,0.0,97,0.01,,,0.54,meteohub,2013-08-09 23:07:00,
2013-08-09 19:12:00,76.3,75.4,29.80,WSW,245,0.0,0.0,97,0.00,,,0.54,meteohub,2013-08-09 23:12:00,
2013-08-09 19:17:00,76.3,75.4,29.80,WSW,246,0.0,0.0,97,0.00,,,0.54,meteohub,2013-08-09 23:17:00,
2013-08-09 19:22:00,76.1,75.2,29.80,WSW,246,0.0,0.0,97,0.00,,,0.54,meteohub,2013-08-09 23:22:00,
2013-08-09 19:27:00,75.9,75.0,29.80,WSW,246,0.0,0.0,97,0.01,,,0.55,meteohub,2013-08-09 23:27:00,
2013-08-09 19:32:00,75.9,75.0,29.80,WSW,249,0.0,1.0,97,0.03,,,0.57,meteohub,2013-08-09 23:32:00,
2013-08-09 19:37:00,75.7,75.2,29.79,WSW,249,0.0,1.0,98,0.05,,,0.59,meteohub,2013-08-09 23:37:00,
2013-08-09 19:42:00,75.7,75.2,29.79,WSW,249,0.0,1.0,98,0.05,,,0.59,meteohub,2013-08-09 23:42:00,
2013-08-09 19:47:00,75.7,75.2,29.78,WSW,249,0.0,0.0,98,0.05,,,0.59,meteohub,2013-08-09 23:47:00,
2013-08-09 19:52:00,75.7,75.2,29.78,WSW,249,0.0,0.0,98,0.06,,,0.60,meteohub,2013-08-09 23:52:00,
2013-08-09 19:57:00,75.7,75.2,29.78,WSW,249,0.0,0.0,98,0.06,,,0.60,meteohub,2013-08-09 23:57:00,
2013-08-09 20:02:00,75.6,75.0,29.79,WSW,249,0.0,0.0,98,0.06,,,0.60,meteohub,2013-08-10 00:02:00,
2013-08-09 20:07:00,75.6,75.0,29.79,WSW,249,0.0,0.0,98,0.06,,,0.60,meteohub,2013-08-10 00:07:00,
2013-08-09 20:12:00,75.6,75.0,29.79,WSW,249,0.0,0.0,98,0.06,,,0.60,meteohub,2013-08-10 00:12:00,
2013-08-09 20:17:00,75.6,75.0,29.79,WSW,249,0.0,0.0,98,0.06,,,0.60,meteohub,2013-08-10 00:17:00,
2013-08-09 20:22:00,75.4,74.8,29.79,WSW,249,0.0,0.0,98,0.06,,,0.60,meteohub,2013-08-10 00:22:00,
2013-08-09 20:27:00,75.4,74.8,29.79,WSW,249,0.0,0.0,98,0.05,,,0.60,meteohub,2013-08-10 00:27:00,
2013-08-09 20:32:00,75.2,74.7,29.79,WSW,249,0.0,0.0,98,0.03,,,0.60,meteohub,2013-08-10 00:32:00,
2013-08-09 20:37:00,75.2,74.7,29.79,WSW,248,0.0,0.0,98,0.01,,,0.60,meteohub,2013-08-10 00:37:00,
2013-08-09 20:42:00,75.0,74.5,29.79,WSW,249,0.0,0.0,98,0.01,,,0.60,meteohub,2013-08-10 00:42:00,
2013-08-09 20:47:00,74.8,74.3,29.79,WSW,249,0.0,0.0,98,0.00,,,0.60,meteohub,2013-08-10 00:47:00,
2013-08-09 20:52:00,74.8,74.3,29.79,WSW,249,0.0,0.0,98,0.00,,,0.60,meteohub,2013-08-10 00:52:00,
2013-08-09 20:57:00,74.8,74.3,29.80,WSW,249,0.0,0.0,98,0.00,,,0.60,meteohub,2013-08-10 00:57:00,
2013-08-09 21:02:00,74.7,74.1,29.79,WSW,249,0.0,0.0,98,0.00,,,0.60,meteohub,2013-08-10 01:02:00,
2013-08-09 21:07:00,74.5,73.9,29.80,WSW,249,0.0,0.0,98,0.00,,,0.60,meteohub,2013-08-10 01:07:00,
2013-08-09 21:12:00,74.3,73.8,29.80,WSW,249,0.0,0.0,98,0.00,,,0.60,meteohub,2013-08-10 01:12:00,
2013-08-09 21:17:00,74.1,73.6,29.80,WSW,249,0.0,0.0,98,0.00,,,0.60,meteohub,2013-08-10 01:17:00,
2013-08-09 21:22:00,74.1,73.6,29.81,WSW,249,0.0,0.0,98,0.00,,,0.60,meteohub,2013-08-10 01:22:00,
2013-08-09 21:27:00,73.9,73.4,29.81,WSW,249,0.0,0.0,98,0.00,,,0.60,meteohub,2013-08-10 01:27:00,
2013-08-09 21:32:00,73.9,73.4,29.81,WSW,248,0.0,0.0,98,0.00,,,0.60,meteohub,2013-08-10 01:32:00,
2013-08-09 21:37:00,73.8,73.2,29.81,WSW,248,0.0,0.0,98,0.00,,,0.60,meteohub,2013-08-10 01:37:00,
2013-08-09 21:42:00,73.8,73.2,29.81,WSW,248,0.0,0.0,98,0.00,,,0.60,meteohub,2013-08-10 01:42:00,
2013-08-09 21:47:00,73.6,73.0,29.81,WSW,248,0.0,0.0,98,0.00,,,0.60,meteohub,2013-08-10 01:47:00,
2013-08-09 21:52:00,73.4,72.9,29.81,WSW,249,0.0,0.0,98,0.00,,,0.60,meteohub,2013-08-10 01:52:00,
2013-08-09 21:57:00,73.4,72.9,29.81,WSW,249,0.0,0.0,98,0.00,,,0.60,meteohub,2013-08-10 01:57:00,
2013-08-09 22:02:00,73.2,72.7,29.81,WSW,249,0.0,0.0,98,0.00,,,0.60,meteohub,2013-08-10 02:02:00,
2013-08-09 22:07:00,73.2,72.7,29.82,WSW,249,0.0,0.0,98,0.00,,,0.60,meteohub,2013-08-10 02:07:00,
2013-08-09 22:12:00,73.2,72.7,29.82,WSW,249,0.0,0.0,98,0.00,,,0.60,meteohub,2013-08-10 02:12:00,
2013-08-09 22:17:00,73.0,72.5,29.82,WSW,248,0.0,0.0,98,0.00,,,0.60,meteohub,2013-08-10 02:17:00,
2013-08-09 22:22:00,73.0,72.5,29.82,WSW,249,0.0,0.0,98,0.00,,,0.60,meteohub,2013-08-10 02:22:00,
2013-08-09 22:27:00,73.0,72.5,29.82,WSW,249,0.0,0.0,98,0.00,,,0.60,meteohub,2013-08-10 02:27:00,
2013-08-09 22:32:00,73.0,72.5,29.82,WSW,249,0.0,0.0,98,0.00,,,0.60,meteohub,2013-08-10 02:32:00,
2013-08-09 22:37:00,73.0,72.5,29.83,WSW,248,0.0,0.0,98,0.00,,,0.60,meteohub,2013-08-10 02:37:00,
2013-08-09 22:42:00,72.9,72.3,29.83,WSW,249,0.0,0.0,98,0.00,,,0.60,meteohub,2013-08-10 02:42:00,
2013-08-09 22:47:00,72.9,72.3,29.83,WSW,249,0.0,0.0,98,0.00,,,0.60,meteohub,2013-08-10 02:47:00,
2013-08-09 22:52:00,72.9,72.3,29.83,WSW,249,0.0,0.0,98,0.00,,,0.60,meteohub,2013-08-10 02:52:00,
2013-08-09 22:57:00,72.9,72.3,29.83,WSW,248,0.0,0.0,98,0.00,,,0.60,meteohub,2013-08-10 02:57:00,
2013-08-09 23:02:00,73.0,72.7,29.82,WSW,248,0.0,0.0,99,0.00,,,0.60,meteohub,2013-08-10 03:02:00,
2013-08-09 23:07:00,73.0,72.7,29.82,WSW,249,0.0,0.0,99,0.00,,,0.60,meteohub,2013-08-10 03:07:00,
2013-08-09 23:12:00,73.0,72.7,29.82,WSW,249,0.0,0.0,99,0.00,,,0.60,meteohub,2013-08-10 03:12:00,
2013-08-09 23:17:00,73.0,72.7,29.82,WSW,249,0.0,0.0,99,0.00,,,0.60,meteohub,2013-08-10 03:17:00,
2013-08-09 23:22:00,73.0,72.7,29.81,WSW,248,0.0,0.0,99,0.00,,,0.60,meteohub,2013-08-10 03:22:00,
2013-08-09 23:27:00,73.2,72.9,29.82,WSW,248,0.0,0.0,99,0.00,,,0.60,meteohub,2013-08-10 03:27:00,
2013-08-09 23:32:00,73.2,72.9,29.82,WSW,248,0.0,0.0,99,0.00,,,0.60,meteohub,2013-08-10 03:32:00,
2013-08-09 23:37:00,73.2,72.9,29.82,WSW,248,0.0,0.0,99,0.00,,,0.60,meteohub,2013-08-10 03:37:00,
2013-08-09 23:42:00,73.0,72.7,29.83,WSW,248,0.0,0.0,99,0.00,,,0.60,meteohub,2013-08-10 03:42:00,
2013-08-09 23:48:00,73.0,72.7,29.82,WSW,247,0.0,0.0,99,0.00,,,0.60,meteohub,2013-08-10 03:48:00,
2013-08-09 23:53:00,73.0,72.7,29.83,WSW,247,0.0,1.0,99,0.00,,,0.60,meteohub,2013-08-10 03:53:00,
2013-08-09 23:58:00,73.0,72.7,29.83,WSW,247,0.0,1.0,99,0.00,,,0.60,meteohub,2013-08-10 03:58:00,